QPF
0.16 0.12 0.14 0.14 0.18 0.30 0.29 0.22 0.11 0.05 0.02 0.00 0.00 0.00 0.00 0.01 0.01 0.03 0.02 0.00 0.00 0.00 0.00 0.00 0.00 0.01 0.00 0.00 0.00 0.00 0.00 0.00 0.00 0.00 0.00 0.00 0.00 0.00 0.00 0.00 0.00 0.02 0.02
0.00 0.00 0.00 0.02 0.10 0.14 0.21 0.20 0.32 0.17 0.04 0.00 0.00 0.00 0.00 0.00 0.01 0.00 0.01 0.02 0.01 0.00 0.00 0.00 0.00 0.00 0.00 0.05 0.02 0.01 0.00 0.00 0.00 0.00 0.00 0.00 0.00 0.00 0.00 0.00 0.00 0.00 0.00
0.00 0.00 0.00 0.00 0.01 0.02 0.01 0.07 0.16 0.18 0.20 0.15 0.05 0.00 0.00 0.00 0.00 0.00 0.00 0.01 0.02 0.02 0.02 0.00 0.00 0.00 0.00 0.03 0.03 0.03 0.01 0.01 0.02 0.00 0.00 0.00 0.00 0.00 0.00 0.00 0.00 0.00 0.00
0.00 0.00 0.00 0.00 0.00 0.00 0.00 0.00 0.12 0.18 0.13 0.18 0.14 0.04 0.01 0.00 0.00 0.00 0.00 0.01 0.02 0.01 0.06 0.02 0.00 0.00 0.00 0.04 0.01 0.00 0.02 0.05 0.04 0.01 0.00 0.00 0.00 0.01 0.00 0.00 0.00 0.00 0.00
0.00 0.00 0.00 0.00 0.00 0.00 0.01 0.00 0.00 0.01 0.06 0.28 0.31 0.14 0.07 0.05 0.03 0.04 0.02 0.01 0.02 0.07 0.03 0.00 0.01 0.00 0.00 0.04 0.03 0.00 0.01 0.01 0.02 0.00 0.00 0.00 0.00 0.00 0.04 0.03 0.00 0.00 0.00
0.00 0.00 0.00 0.00 0.00 0.01 0.03 0.02 0.00 0.01 0.09 0.28 0.39 0.32 0.23 0.22 0.25 0.17 0.10 0.05 0.01 0.02 0.06 0.07 0.02 0.00 0.00 0.00 0.00 0.00 0.00 0.00 0.00 0.00 0.00 0.00 0.01 0.01 0.06 0.07 0.02 0.00 0.00
0.00 0.00 0.00 0.00 0.00 0.00 0.00 0.00 0.00 0.01 0.03 0.13 0.21 0.27 0.30 0.31 0.30 0.26 0.19 0.14 0.07 0.03 0.03 0.06 0.07 0.01 0.02 0.00 0.01 0.00 0.00 0.00 0.00 0.00 0.00 0.00 0.02 0.11 0.02 0.00 0.00 0.00 0.00
0.00 0.00 0.00 0.00 0.00 0.00 0.00 0.00 0.00 0.00 0.01 0.05 0.07 0.11 0.11 0.10 0.17 0.21 0.17 0.17 0.12 0.06 0.04 0.05 0.07 0.06 0.03 0.02 0.02 0.00 0.00 0.00 0.00 0.00 0.00 0.02 0.02 0.06 0.03 0.02 0.00 0.00 0.00
0.00 0.00 0.00 0.00 0.00 0.00 0.00 0.00 0.00 0.00 0.00 0.01 0.03 0.02 0.03 0.04 0.02 0.06 0.10 0.15 0.18 0.15 0.07 0.03 0.01 0.02 0.03 0.01 0.00 0.00 0.00 0.00 0.00 0.02 0.02 0.00 0.03 0.08 0.02 0.01 0.04 0.01 0.06
0.00 0.00 0.00 0.00 0.00 0.00 0.00 0.00 0.00 0.00 0.00 0.00 0.01 0.01 0.02 0.04 0.04 0.00 0.02 0.07 0.14 0.21 0.18 0.08 0.01 0.00 0.01 0.03 0.00 0.00 0.00 0.00 0.00 0.00 0.00 0.00 0.01 0.01 0.00 0.00 0.00 0.00 0.08
0.00 0.00 0.00 0.00 0.00 0.00 0.00 0.00 0.00 0.00 0.00 0.00 0.00 0.00 0.02 0.02 0.01 0.01 0.00 0.00 0.02 0.05 0.08 0.08 0.03 0.00 0.00 0.00 0.00 0.00 0.00 0.00 0.00 0.00 0.00 0.00 0.00 0.00 0.00 0.00 0.00 0.00 0.00
0.00 0.00 0.00 0.00 0.00 0.00 0.00 0.00 0.00 0.00 0.00 0.00 0.00 0.00 0.01 0.04 0.03 0.01 0.00 0.00 0.00 0.00 0.00 0.00 0.00 0.00 0.01 0.00 0.00 0.00 0.00 0.01 0.00 0.04 0.01 0.00 0.00 0.04 0.10 0.03 0.00 0.00 0.00
0.00 0.00 0.00 0.00 0.00 0.00 0.00 0.00 0.00 0.00 0.00 0.00 0.00 0.00 0.00 0.01 0.05 0.08 0.02 0.00 0.00 0.00 0.00 0.00 0.00 0.00 0.00 0.00 0.00 0.00 0.00 0.00 0.00 0.00 0.00 0.00 0.01 0.05 0.04 0.00 0.00 0.00 0.00
0.00 0.00 0.00 0.00 0.00 0.00 0.00 0.00 0.00 0.00 0.00 0.00 0.00 0.00 0.00 0.00 0.00 0.01 0.01 0.01 0.00 0.00 0.00 0.00 0.00 0.00 0.00 0.00 0.00 0.00 0.00 0.00 0.00 0.00 0.00 0.00 0.04 0.01 0.00 0.00 0.00 0.00 0.00
0.00 0.00 0.00 0.00 0.00 0.00 0.00 0.00 0.00 0.00 0.00 0.00 0.00 0.00 0.00 0.00 0.00 0.00 0.00 0.00 0.00 0.00 0.00 0.00 0.00 0.00 0.00 0.00 0.00 0.00 0.00 0.00 0.00 0.00 0.00 0.01 0.07 0.07 0.03 0.01 0.01 0.00 0.00
0.00 0.00 0.00 0.00 0.00 0.00 0.00 0.00 0.00 0.00 0.00 0.00 0.00 0.00 0.00 0.00 0.00 0.00 0.00 0.00 0.00 0.00 0.00 0.00 0.00 0.00 0.00 0.00 0.00 0.00 0.00 0.00 0.00 0.00 0.01 0.05 0.10 0.08 0.08 0.03 0.00 0.00 0.00
0.00 0.00 0.00 0.00 0.00 0.00 0.00 0.00 0.00 0.00 0.00 0.00 0.00 0.00 0.00 0.00 0.00 0.00 0.00 0.00 0.00 0.00 0.00 0.00 0.00 0.00 0.00 0.00 0.00 0.00 0.00 0.00 0.01 0.00 0.02 0.03 0.06 0.06 0.03 0.00 0.00 0.00 0.00
0.00 0.00 0.00 0.00 0.00 0.00 0.00 0.00 0.00 0.00 0.00 0.00 0.00 0.00 0.00 0.00 0.00 0.00 0.00 0.00 0.00 0.00 0.00 0.00 0.00 0.00 0.00 0.00 0.00 0.00 0.00 0.00 0.01 0.00 0.02 0.02 0.02 0.04 0.03 0.01 0.00 0.00 0.01
0.00 0.00 0.00 0.00 0.00 0.00 0.00 0.00 0.00 0.00 0.00 0.00 0.00 0.00 0.00 0.00 0.00 0.00 0.00 0.00 0.00 0.00 0.00 0.00 0.00 0.00 0.00 0.02 0.03 0.02 0.02 0.03 0.04 0.01 0.01 0.01 0.07 0.10 0.06 0.03 0.00 0.00 0.00
0.00 0.00 0.00 0.00 0.00 0.01 0.00 0.00 0.00 0.00 0.00 0.00 0.00 0.00 0.00 0.00 0.00 0.00 0.00 0.00 0.00 0.00 0.00 0.00 0.00 0.00 0.01 0.00 0.02 0.03 0.04 0.04 0.04 0.02 0.01 0.00 0.02 0.03 0.04 0.04 0.01 0.00 0.00
0.00 0.00 0.01 0.02 0.03 0.03 0.02 0.01 0.00 0.00 0.00 0.00 0.00 0.00 0.00 0.00 0.00 0.00 0.00 0.00 0.00 0.00 0.00 0.00 0.00 0.00 0.00 0.01 0.04 0.02 0.02 0.03 0.03 0.03 0.06 0.05 0.03 0.01 0.02 0.01 0.00 0.00 0.00
0.00 0.00 0.02 0.02 0.03 0.03 0.03 0.01 0.00 0.00 0.00 0.00 0.00 0.00 0.00 0.00 0.00 0.00 0.00 0.00 0.00 0.00 0.00 0.00 0.00 0.00 0.00 0.01 0.03 0.03 0.01 0.01 0.02 0.05 0.05 0.04 0.01 0.00 0.00 0.00 0.00 0.00 0.00
0.00 0.00 0.00 0.01 0.03 0.06 0.07 0.05 0.02 0.01 0.00 0.00 0.00 0.00 0.00 0.00 0.00 0.00 0.00 0.00 0.00 0.00 0.00 0.00 0.01 0.01 0.01 0.00 0.03 0.04 0.03 0.01 0.02 0.01 0.01 0.00 0.00 0.00 0.00 0.00 0.00 0.00 0.00
0.00 0.00 0.01 0.02 0.06 0.09 0.07 0.06 0.03 0.00 0.00 0.00 0.00 0.00 0.00 0.00 0.00 0.01 0.00 0.00 0.00 0.00 0.00 0.00 0.00 0.02 0.05 0.07 0.03 0.04 0.01 0.01 0.01 0.00 0.00 0.00 0.00 0.00 0.00 0.00 0.00 0.00 0.00
0.00 0.00 0.02 0.06 0.09 0.08 0.05 0.04 0.02 0.00 0.00 0.00 0.00 0.00 0.00 0.00 0.03 0.10 0.05 0.00 0.00 0.03 0.07 0.02 0.00 0.00 0.05 0.07 0.10 0.10 0.06 0.01 0.00 0.00 0.00 0.00 0.00 0.00 0.00 0.00 0.00 0.00 0.00
0.00 0.00 0.01 0.04 0.04 0.03 0.04 0.04 0.01 0.00 0.00 0.00 0.00 0.01 0.01 0.04 0.08 0.09 0.01 0.00 0.00 0.02 0.10 0.09 0.02 0.00 0.05 0.10 0.12 0.15 0.10 0.04 0.00 0.00 0.00 0.00 0.00 0.00 0.00 0.00 0.00 0.00 0.00
MSLP
1012.80 1013.48 1013.07 1012.18 1012.16 1013.34 1014.34 1014.81 1014.31 1014.24 1014.14 1014.32 1014.51 1014.71 1014.74 1014.85 1015.16 1015.63 1015.87 1016.19 1016.45 1016.55 1016.67 1016.84 1017.07 1017.26 1017.36 1017.54 1017.88 1018.10 1018.20 1018.40 1018.45 1018.03 1017.82 1017.13 1016.72 1016.44 1016.28 1016.44 1016.48 1016.28 1016.37
1013.78 1014.11 1013.42 1013.17 1013.32 1014.04 1013.82 1013.82 1013.75 1013.60 1013.46 1013.39 1013.43 1013.89 1014.18 1014.27 1014.43 1014.83 1015.19 1015.46 1015.76 1016.00 1016.11 1016.31 1016.42 1016.74 1017.02 1017.20 1017.42 1017.66 1017.79 1017.91 1018.04 1017.84 1017.57 1017.12 1016.89 1016.55 1016.33 1016.37 1016.25 1016.00 1015.96
1014.34 1014.17 1014.01 1013.82 1013.56 1013.66 1013.38 1013.02 1012.45 1012.51 1012.71 1012.54 1012.67 1012.69 1012.82 1013.15 1013.57 1013.71 1014.00 1014.47 1014.94 1015.11 1015.39 1015.63 1015.73 1016.10 1016.34 1016.67 1016.98 1017.20 1017.34 1017.54 1017.61 1017.58 1017.27 1017.17 1016.92 1016.63 1016.56 1016.40 1016.19 1016.08 1016.02
1013.52 1013.44 1012.94 1012.80 1012.69 1012.42 1012.07 1012.03 1011.87 1011.84 1011.92 1012.02 1011.88 1011.55 1011.96 1012.22 1012.61 1013.17 1013.44 1013.50 1013.89 1014.23 1014.48 1014.68 1014.83 1015.18 1015.53 1015.83 1016.15 1016.32 1016.61 1016.80 1017.03 1017.09 1016.92 1016.79 1016.71 1016.50 1016.67 1016.56 1016.24 1016.17 1015.99
1013.09 1013.08 1013.03 1012.83 1012.58 1012.30 1011.90 1011.64 1011.34 1011.25 1011.12 1011.10 1011.07 1011.09 1011.64 1011.70 1011.69 1012.28 1012.83 1013.15 1013.26 1013.40 1013.58 1013.80 1013.87 1013.95 1014.25 1014.62 1015.07 1015.28 1015.73 1016.11 1016.39 1016.61 1016.64 1016.49 1016.35 1016.41 1016.39 1016.33 1016.32 1016.10 1015.85
1012.91 1013.07 1013.09 1012.87 1012.66 1012.40 1012.10 1011.74 1011.20 1010.97 1010.66 1010.58 1010.87 1011.23 1011.47 1012.18 1012.65 1013.27 1013.37 1013.09 1012.76 1012.78 1012.82 1012.96 1013.00 1013.19 1013.46 1013.74 1013.94 1014.19 1014.53 1015.12 1015.45 1015.70 1015.71 1015.77 1015.65 1015.75 1015.74 1015.89 1016.05 1015.90 1015.66
1012.68 1012.42 1012.39 1012.34 1012.19 1011.94 1011.77 1011.56 1011.08 1010.68 1010.44 1010.35 1010.54 1010.47 1010.56 1010.80 1012.42 1013.30 1013.45 1013.59 1013.30 1012.85 1012.37 1012.40 1012.55 1012.54 1012.72 1013.13 1013.40 1013.47 1013.68 1013.82 1014.12 1014.64 1014.84 1014.89 1015.02 1014.98 1015.24 1015.22 1015.26 1015.45 1015.30
1012.44 1012.10 1011.84 1011.77 1011.65 1011.38 1011.17 1010.95 1010.58 1010.38 1010.06 1009.87 1009.66 1009.54 1009.35 1008.69 1010.81 1012.29 1012.82 1013.01 1012.74 1012.58 1011.99 1011.91 1011.89 1011.89 1011.95 1012.25 1012.59 1012.86 1012.90 1013.07 1013.22 1013.58 1013.70 1013.69 1013.81 1014.05 1014.36 1014.42 1014.60 1014.82 1014.96
1012.43 1011.85 1011.38 1011.22 1011.00 1010.85 1010.64 1010.39 1010.19 1010.01 1009.79 1009.55 1009.18 1009.17 1009.27 1009.47 1009.43 1010.57 1011.17 1011.82 1011.80 1011.63 1011.31 1010.98 1010.93 1010.98 1011.10 1011.38 1011.74 1011.96 1012.03 1012.14 1012.18 1012.36 1012.44 1012.59 1012.93 1013.24 1013.52 1014.01 1014.26 1014.58 1014.59
1011.72 1011.34 1011.09 1010.87 1010.67 1010.43 1010.29 1009.92 1009.66 1009.45 1009.48 1009.38 1008.97 1009.03 1008.83 1008.78 1009.83 1009.61 1009.78 1009.83 1009.57 1010.22 1010.44 1010.36 1010.11 1010.04 1010.19 1010.46 1010.88 1010.97 1011.12 1011.18 1011.70 1012.10 1012.32 1012.49 1012.57 1012.71 1013.17 1012.95 1013.30 1013.66 1014.16
1011.09 1010.83 1010.66 1010.46 1010.23 1010.04 1009.82 1009.65 1009.20 1008.93 1008.89 1009.04 1008.70 1008.53 1008.21 1008.26 1008.47 1008.78 1008.92 1008.80 1008.34 1008.28 1009.05 1008.85 1009.36 1008.99 1009.32 1009.71 1009.72 1009.54 1009.37 1009.94 1010.54 1010.76 1011.19 1011.61 1011.85 1011.99 1012.38 1012.46 1012.51 1012.82 1013.31
1010.70 1010.49 1010.17 1009.84 1009.59 1009.20 1009.24 1009.22 1008.98 1008.53 1008.45 1008.50 1008.46 1008.31 1008.40 1008.10 1008.18 1008.04 1008.25 1008.12 1008.07 1008.63 1007.73 1008.45 1007.88 1007.83 1008.27 1008.73 1009.25 1008.82 1008.69 1009.08 1009.46 1009.93 1010.20 1010.61 1011.13 1011.38 1011.54 1011.79 1012.06 1012.31 1012.54
1010.08 1009.93 1009.62 1009.17 1008.84 1008.60 1008.56 1008.42 1008.50 1008.10 1007.69 1007.47 1007.38 1007.28 1007.38 1007.50 1007.08 1006.86 1006.83 1006.83 1007.30 1007.42 1007.12 1006.81 1006.76 1006.82 1006.94 1007.80 1007.86 1008.15 1008.57 1009.00 1008.83 1009.11 1009.10 1009.36 1009.75 1010.02 1010.76 1011.55 1011.91 1012.23 1012.58
1009.44 1009.15 1008.92 1008.54 1007.87 1007.64 1007.79 1007.71 1007.62 1007.53 1007.15 1006.68 1006.28 1005.77 1005.76 1006.02 1006.08 1005.82 1005.78 1006.20 1006.13 1006.59 1006.62 1006.63 1006.80 1006.77 1006.95 1007.24 1007.52 1007.49 1007.37 1008.01 1007.89 1007.75 1007.91 1008.20 1008.91 1009.78 1010.25 1010.93 1011.59 1011.94 1012.23
1008.67 1008.36 1007.97 1007.69 1007.33 1006.71 1006.49 1006.62 1006.50 1006.15 1005.87 1005.71 1005.37 1005.23 1004.92 1004.91 1004.98 1004.99 1004.93 1005.04 1005.40 1005.46 1005.93 1006.34 1006.52 1006.45 1006.65 1006.63 1006.68 1006.82 1006.76 1006.73 1007.08 1006.79 1007.05 1007.47 1008.31 1008.93 1009.60 1010.32 1010.80 1011.22 1011.43
1008.09 1007.72 1007.37 1007.00 1006.59 1006.25 1005.89 1005.55 1005.65 1005.44 1005.04 1004.86 1004.55 1004.85 1004.21 1004.20 1004.31 1004.54 1004.74 1004.68 1004.70 1005.05 1005.89 1006.05 1005.89 1005.74 1005.97 1006.22 1006.06 1005.93 1005.69 1005.54 1005.80 1006.13 1006.16 1006.50 1007.20 1007.80 1008.67 1009.64 1009.98 1010.28 1010.66
1007.73 1007.17 1006.71 1006.33 1005.96 1005.61 1005.29 1005.01 1004.74 1004.51 1004.27 1004.08 1003.91 1003.86 1004.23 1004.11 1003.91 1003.98 1004.14 1004.30 1004.62 1005.29 1005.27 1005.17 1004.94 1005.17 1005.36 1005.32 1005.14 1004.98 1004.79 1005.01 1004.63 1004.90 1005.40 1005.62 1006.06 1006.75 1007.56 1008.42 1009.02 1009.53 1010.13
1007.04 1006.49 1005.93 1005.27 1004.82 1004.45 1004.33 1004.08 1003.97 1003.95 1003.86 1003.26 1003.01 1003.31 1003.34 1003.40 1003.61 1003.62 1003.90 1004.51 1004.92 1004.79 1004.40 1004.22 1004.32 1004.37 1004.14 1004.05 1004.09 1004.02 1004.06 1004.05 1004.48 1004.67 1004.45 1004.85 1005.45 1005.87 1006.66 1007.50 1008.16 1008.75 1009.43
1006.39 1005.71 1005.09 1004.34 1003.57 1003.16 1003.00 1002.91 1002.85 1002.87 1002.78 1002.70 1002.37 1002.33 1002.35 1002.65 1003.00 1003.36 1003.82 1003.72 1003.44 1003.05 1003.00 1002.99 1003.22 1003.14 1002.98 1003.08 1003.10 1003.06 1002.94 1003.30 1003.33 1003.82 1004.32 1003.86 1004.74 1005.10 1005.74 1006.36 1007.09 1007.76 1008.57
1005.74 1005.17 1004.61 1003.69 1002.72 1002.06 1001.75 1001.60 1001.44 1001.37 1001.36 1001.29 1001.23 1001.15 1001.39 1002.00 1002.36 1002.45 1002.68 1002.56 1002.28 1001.91 1001.93 1001.87 1001.89 1001.87 1002.05 1002.07 1002.04 1001.89 1002.17 1002.39 1002.77 1003.24 1003.50 1003.45 1003.78 1004.50 1004.84 1005.64 1006.40 1007.04 1007.73
1005.31 1004.48 1003.80 1002.98 1002.04 1001.33 1000.75 1000.65 1000.48 1000.41 1000.27 1000.17 1000.02 1000.04 1000.19 1000.73 1000.75 1000.83 1000.71 1000.93 1000.80 1000.74 1000.73 1000.78 1000.76 1000.79 1000.88 1000.78 1000.81 1001.06 1001.35 1001.61 1001.90 1002.50 1002.93 1002.89 1003.00 1003.49 1004.03 1004.69 1005.58 1006.10 1006.62
1004.77 1003.95 1003.15 1002.35 1001.50 1000.53 1000.05 999.76 999.44 999.37 999.36 999.33 999.26 999.21 999.21 999.73 999.59 999.54 999.50 999.45 999.28 999.34 999.37 999.42 999.37 999.54 999.60 999.55 999.62 999.73 1000.11 1000.46 1000.84 1001.41 1001.89 1001.87 1002.12 1002.54 1003.10 1003.80 1004.94 1005.44 1006.05
1004.04 1003.16 1002.29 1001.41 1000.56 999.90 999.38 999.09 998.85 998.72 998.64 998.59 998.57 998.46 998.54 998.57 998.60 998.57 998.41 998.21 998.23 998.43 998.43 998.36 998.38 998.30 998.36 998.63 998.61 998.60 998.93 998.90 999.45 1000.31 1000.63 1000.45 1001.03 1001.41 1002.36 1003.79 1004.43 1005.04 1005.65
1003.35 1002.53 1001.60 1000.49 999.73 999.20 998.84 998.45 998.25 998.12 997.91 997.79 997.66 997.56 997.55 997.47 997.38 997.22 997.15 996.97 997.19 997.11 996.97 997.22 997.37 997.30 997.46 997.69 997.69 997.84 997.83 998.25 998.65 999.19 999.13 999.25 999.88 1001.26 1002.55 1003.36 1003.89 1004.49 1005.08
1003.27 1002.48 1001.58 1000.45 999.43 998.75 998.46 998.13 997.76 997.48 997.19 996.94 996.73 996.63 996.54 996.53 996.49 996.40 996.20 996.24 996.07 996.10 996.10 996.26 996.28 996.38 996.66 996.66 996.80 996.71 997.18 997.61 998.25 998.49 998.83 999.28 999.86 1001.03 1002.06 1002.84 1003.38 1003.94 1004.83
1003.46 1002.69 1001.90 1001.09 1000.19 999.43 998.83 998.36 997.86 997.32 996.90 996.52 996.29 996.07 995.75 995.55 995.53 995.38 995.09 995.14 995.36 995.54 995.58 995.42 995.34 995.78 996.08 996.15 996.50 996.70 996.93 997.38 997.77 998.00 998.88 999.58 1000.43 1001.15 1001.83 1002.55 1003.21 1003.91 1004.63
Thickness
5779 5772 5780 5789 5777 5770 5760 5754 5760 5761 5764 5764 5762 5759 5759 5760 5759 5756 5755 5754 5753 5752 5754 5755 5753 5753 5754 5755 5754 5753 5752 5749 5746 5755 5759 5767 5772 5775 5776 5776 5776 5778 5778
5764 5763 5771 5773 5769 5762 5757 5759 5760 5760 5764 5766 5766 5764 5760 5758 5758 5757 5754 5754 5752 5750 5752 5752 5753 5753 5752 5754 5753 5752 5751 5752 5751 5750 5757 5762 5765 5769 5772 5771 5772 5775 5776
5751 5751 5752 5755 5755 5756 5755 5761 5768 5766 5763 5767 5765 5765 5766 5763 5759 5759 5758 5755 5752 5752 5751 5751 5752 5751 5751 5751 5750 5749 5750 5750 5752 5753 5755 5759 5761 5764 5765 5767 5767 5768 5770
5753 5752 5755 5757 5757 5760 5764 5763 5765 5767 5766 5765 5768 5768 5765 5764 5761 5756 5753 5755 5753 5751 5751 5752 5753 5752 5751 5751 5751 5751 5751 5751 5750 5750 5753 5755 5757 5760 5759 5757 5759 5763 5764
5748 5746 5746 5747 5750 5752 5757 5758 5762 5763 5763 5765 5766 5766 5761 5761 5761 5754 5748 5745 5747 5748 5750 5751 5754 5756 5755 5754 5753 5755 5753 5750 5749 5747 5748 5751 5753 5753 5752 5754 5753 5756 5759
5738 5734 5733 5735 5737 5739 5741 5745 5754 5754 5757 5758 5755 5749 5746 5741 5738 5731 5733 5736 5740 5743 5746 5749 5752 5753 5754 5753 5754 5756 5756 5751 5748 5748 5749 5749 5751 5752 5754 5754 5751 5749 5748
5723 5725 5725 5725 5726 5727 5729 5730 5737 5741 5743 5743 5741 5743 5738 5738 5713 5714 5724 5725 5730 5735 5740 5741 5744 5751 5751 5751 5750 5753 5754 5756 5757 5753 5751 5751 5750 5752 5754 5753 5752 5749 5748
5712 5713 5713 5711 5713 5716 5716 5718 5723 5725 5729 5729 5732 5734 5737 5742 5724 5708 5712 5717 5724 5731 5739 5742 5742 5744 5749 5751 5751 5751 5755 5756 5758 5756 5756 5756 5758 5757 5755 5755 5753 5751 5749
5691 5696 5700 5699 5698 5700 5703 5703 5705 5710 5711 5712 5717 5722 5722 5721 5722 5717 5712 5714 5721 5725 5734 5742 5747 5745 5747 5748 5750 5751 5755 5757 5759 5760 5760 5760 5758 5757 5755 5752 5746 5743 5741
5679 5682 5684 5685 5685 5686 5688 5692 5692 5696 5696 5699 5703 5702 5707 5713 5706 5709 5715 5722 5725 5729 5729 5732 5740 5747 5747 5746 5748 5749 5751 5755 5753 5755 5756 5756 5755 5755 5751 5752 5749 5742 5738
5667 5668 5669 5670 5671 5672 5675 5677 5681 5683 5684 5683 5691 5694 5700 5706 5706 5705 5707 5718 5727 5730 5726 5725 5731 5741 5742 5743 5749 5757 5761 5756 5754 5757 5758 5756 5755 5753 5749 5748 5748 5745 5739
5650 5653 5656 5659 5661 5665 5664 5664 5666 5671 5673 5672 5676 5680 5683 5692 5696 5699 5700 5708 5721 5715 5725 5722 5737 5742 5741 5741 5740 5752 5757 5754 5753 5752 5755 5755 5751 5748 5747 5747 5744 5742 5741
5641 5642 5646 5651 5655 5657 5657 5658 5658 5662 5667 5670 5674 5677 5676 5677 5690 5697 5701 5710 5716 5721 5725 5734 5739 5741 5743 5738 5742 5744 5745 5748 5749 5748 5753 5755 5752 5752 5747 5741 5736 5736 5734
5637 5640 5641 5644 5652 5655 5653 5653 5654 5655 5659 5666 5671 5679 5677 5675 5681 5690 5698 5703 5713 5716 5719 5722 5727 5732 5734 5734 5736 5738 5745 5744 5748 5750 5753 5755 5752 5745 5743 5737 5731 5731 5728
5633 5636 5639 5641 5643 5651 5654 5652 5653 5658 5661 5664 5669 5672 5675 5675 5677 5682 5690 5699 5703 5709 5713 5715 5717 5722 5722 5727 5730 5732 5739 5743 5742 5749 5750 5749 5745 5741 5739 5734 5730 5728 5726
5626 5627 5629 5631 5635 5639 5643 5649 5645 5649 5654 5657 5664 5665 5673 5675 5674 5673 5677 5683 5690 5695 5698 5703 5710 5716 5717 5717 5722 5728 5737 5741 5741 5743 5747 5747 5744 5742 5737 5730 5729 5728 5723
5616 5619 5620 5621 5623 5627 5630 5635 5640 5644 5646 5652 5656 5659 5659 5664 5668 5669 5670 5673 5675 5678 5689 5697 5704 5706 5708 5713 5719 5724 5731 5734 5737 5738 5741 5744 5744 5743 5738 5732 5729 5723 5717
5606 5607 5610 5615 5618 5620 5620 5624 5628 5632 5636 5649 5651 5650 5654 5657 5659 5664 5663 5661 5668 5669 5682 5689 5693 5699 5707 5712 5715 5720 5723 5724 5726 5728 5735 5737 5738 5740 5737 5732 5727 5720 5712
5598 5601 5604 5609 5615 5617 5619 5620 5621 5624 5629 5634 5642 5649 5649 5650 5653 5654 5655 5666 5670 5676 5679 5686 5689 5696 5703 5707 5710 5714 5718 5717 5722 5720 5722 5730 5731 5735 5734 5733 5726 5718 5710
5593 5594 5596 5601 5608 5612 5615 5617 5620 5623 5627 5633 5637 5644 5648 5647 5652 5656 5656 5662 5669 5674 5676 5682 5687 5694 5697 5702 5705 5710 5710 5712 5709 5708 5714 5721 5727 5727 5732 5727 5720 5714 5708
5584 5588 5591 5595 5600 5605 5609 5610 5614 5617 5622 5628 5634 5639 5642 5647 5652 5656 5663 5664 5669 5672 5674 5678 5683 5688 5692 5699 5702 5703 5706 5704 5702 5703 5708 5716 5722 5724 5727 5726 5720 5716 5710
5577 5581 5585 5588 5593 5600 5602 5605 5610 5613 5618 5623 5628 5634 5633 5640 5650 5656 5661 5666 5671 5675 5677 5680 5683 5686 5692 5699 5699 5702 5702 5702 5702 5705 5707 5716 5720 5723 5726 5724 5716 5711 5706
5573 5577 5582 5586 5591 5594 5598 5600 5603 5608 5613 5619 5623 5629 5634 5639 5645 5652 5659 5666 5670 5672 5675 5680 5682 5687 5694 5696 5700 5702 5701 5705 5709 5708 5713 5722 5723 5727 5723 5713 5708 5703 5700
5570 5575 5580 5587 5592 5593 5595 5598 5602 5605 5611 5616 5621 5627 5634 5642 5648 5655 5661 5667 5670 5674 5678 5681 5685 5690 5692 5693 5699 5701 5706 5709 5713 5714 5721 5727 5726 5718 5712 5706 5703 5699 5696
5565 5567 5572 5581 5589 5593 5595 5597 5601 5605 5610 5616 5623 5630 5637 5644 5649 5655 5662 5666 5672 5676 5682 5686 5691 5694 5696 5700 5703 5709 5709 5710 5713 5716 5720 5720 5720 5712 5707 5703 5700 5698 5691
5557 5560 5563 5568 5575 5581 5588 5592 5597 5603 5609 5616 5624 5632 5639 5647 5653 5658 5664 5668 5671 5676 5680 5688 5692 5696 5697 5701 5702 5703 5703 5706 5709 5713 5712 5710 5707 5705 5702 5699 5695 5691 5685